Location: Gwatt
(46.7204°N, 7.6223°E)
Time: 01:53:22
(UTC+00:00)

Okean 2 - Pass Details

Date: 18 September 2020
Orbit: 559 x 577 km, 82.5° (Epoch: 29 October)

Event Time Altitude Azimuth Distance (km) Brightness Sun altitude
Rises 18:28:20 0° 347° (NNW) 2,805 7.3 -10.0°
Reaches altitude 10° 18:30:33 10° 344° (NNW) 1,900 6.5 -10.3°
Maximum altitude 18:34:41 61° 265° (W) 655 4.0 -11.0°
Drops below altitude 10° 18:38:47 10° 185° (S) 1,877 5.9 -11.7°
Sets 18:40:58 0° 181° (S) 2,768 6.8 -12.1°
